CAPE
0 0 0 0 0 0 0 0 0 0 0 0 0 0 0 0 0 0 0 0 0 0 0 0 0 0 0 0 0 0 0 0 0 0 0 0 0 0 0 0 0 0
0 3 0 0 0 1 0 0 0 0 0 0 0 0 0 0 0 0 0 0 0 0 0 0 0 0 0 0 0 0 0 0 0 0 0 0 0 0 0 0 0 0
0 5 0 0 0 0 2 0 1 0 0 0 0 0 0 0 0 0 0 0 0 0 0 0 0 0 0 0 0 0 0 0 0 0 0 0 0 0 0 0 0 0
4 0 0 0 0 0 30 20 0 10 3 0 0 0 0 0 0 0 0 0 0 0 0 0 0 0 0 0 0 0 0 0 0 0 0 0 0 0 0 0 0 0
37 0 0 0 11 0 181 65 0 118 65 27 0 0 0 0 0 0 0 0 0 0 0 0 0 0 0 0 0 0 0 0 0 0 0 0 0 0 0 0 0 0
217 27 43 0 167 18 234 177 4 8 180 130 27 0 0 0 0 0 0 0 0 0 0 0 0 0 0 0 0 0 0 0 0 0 0 0 0 0 0 0 0 0
543 348 399 210 528 50 254 225 84 10 0 196 34 0 0 0 10 2 0 0 0 0 0 0 0 0 0 0 0 0 0 0 0 0 0 0 0 0 0 0 0 0
899 730 570 424 538 287 346 359 315 295 117 276 8 172 0 0 10 14 3 4 3 0 0 0 0 0 0 0 0 0 0 0 0 0 0 0 0 0 0 0 0 0
772 807 833 491 364 390 449 476 304 335 300 285 324 330 310 239 211 112 15 10 26 1 0 0 0 0 0 0 0 0 0 0 0 0 0 0 0 0 0 0 0 0
810 1064 1063 1068 926 771 621 470 301 2 209 14 35 350 525 568 279 206 181 195 198 173 171 27 8 0 0 0 0 0 0 0 0 0 0 0 0 0 0 0 0 0
873 974 904 825 895 940 738 577 394 72 114 40 112 205 455 610 618 451 267 274 270 247 245 236 200 161 150 88 0 0 3 5 3 2 0 0 0 0 0 0 0 0
760 882 984 939 820 788 809 865 671 467 39 121 178 133 385 400 542 501 474 369 87 304 296 252 230 235 222 205 192 97 0 147 134 83 1 2 0 0 0 0 0 1
698 564 751 925 1008 951 843 760 695 637 558 360 287 192 166 97 206 172 152 156 166 131 250 289 274 264 273 264 256 229 199 0 0 0 0 0 0 0 0 0 5 14
574 250 376 973 817 889 856 795 707 630 590 536 463 354 449 424 221 116 61 14 86 130 68 36 348 318 303 298 290 285 267 245 213 200 52 0 0 0 0 0 0 3
388 477 530 562 568 513 461 457 480 590 579 520 518 590 518 443 377 122 100 188 194 162 170 87 329 346 331 334 318 309 292 267 235 213 186 0 0 0 0 0 0 0
0 0 0 247 449 438 461 455 496 570 540 545 539 529 471 432 469 465 392 318 303 246 383 380 388 368 316 318 328 303 274 276 271 254 222 169 29 0 0 0 0 0
0 1 8 0 2 26 272 523 538 562 578 578 568 611 646 640 592 524 490 476 454 413 396 459 606 633 526 341 270 245 214 270 277 262 230 194 128 0 0 0 0 0
0 0 0 0 0 224 145 163 353 512 543 544 568 600 674 782 709 643 617 644 645 707 724 711 674 702 710 613 497 410 326 244 224 216 214 189 142 123 28 0 0 50
0 0 0 0 0 0 0 0 0 294 366 305 439 623 813 999 997 905 849 783 786 881 909 909 969 980 930 857 764 632 506 378 262 265 230 150 31 0 0 0 0 15
0 0 0 0 0 0 0 0 0 0 1 121 144 410 743 908 960 924 803 706 577 526 431 548 679 793 845 839 769 727 643 376 343 374 280 174 103 91 0 0 28 5
0 0 0 0 0 0 0 0 0 0 0 48 172 189 179 336 577 515 436 304 247 239 340 432 460 466 460 508 585 656 672 405 242 168 42 162 29 0 0 0 3 5
0 0 0 0 0 0 0 0 0 0 0 0 130 164 188 166 295 416 386 304 233 206 217 265 279 274 279 274 297 342 392 371 319 266 234 170 114 24 0 1 4 1
0 0 0 0 0 0 0 0 0 0 0 0 30 223 256 233 204 173 214 318 345 341 344 349 311 259 246 256 259 251 263 259 84 0 0 0 0 2 1 2 5 0
0 0 0 0 0 0 0 0 0 0 0 0 6 35 194 250 258 36 0 132 331 410 406 359 312 246 210 210 216 230 249 267 108 0 0 1 1 1 2 2 0 0
0 0 0 0 0 0 0 0 0 0 0 0 1 65 167 190 170 23 0 0 63 220 229 216 225 235 231 224 185 181 170 28 0 3 16 1 0 0 4 8 7 1
0 0 0 0 0 0 0 0 0 0 0 0 0 0 40 136 133 0 0 56 158 167 174 186 206 224 230 239 209 168 70 0 0 0 0 0 0 4 12 8 12 0
Wind_Speed
nan nan nan nan nan nan nan nan nan nan nan nan nan nan nan nan nan nan nan nan nan nan nan nan nan nan nan nan nan nan nan nan nan nan nan nan nan nan nan nan nan nan
nan nan nan nan nan nan nan nan nan nan nan nan nan nan nan nan nan nan nan nan nan nan nan nan nan nan nan nan nan nan nan nan nan nan nan nan nan nan nan nan nan nan
nan nan nan nan nan nan nan nan nan nan nan nan nan nan nan nan nan nan nan nan nan nan nan nan nan nan nan nan nan nan nan nan nan nan nan nan nan nan nan nan nan nan
nan nan nan nan nan nan nan nan nan nan nan nan nan nan nan nan nan nan nan nan nan nan nan nan nan nan nan nan nan nan nan nan nan nan nan nan nan nan nan nan nan nan
nan nan nan nan nan nan 15 nan nan 18 nan nan nan nan nan nan nan nan nan nan nan nan nan nan nan nan nan nan nan nan nan nan nan nan nan nan nan nan nan nan nan nan
22 nan nan nan 17 nan 15 18 nan nan 23 24 nan nan nan nan nan nan nan nan nan nan nan nan nan nan nan nan nan nan nan nan nan nan nan nan nan nan nan nan nan nan
26 25 23 23 21 nan 19 20 nan nan nan 24 nan nan nan nan nan nan nan nan nan nan nan nan nan nan nan nan nan nan nan nan nan nan nan nan nan nan nan nan nan nan
30 29 28 27 28 27 26 25 26 26 26 26 nan 25 nan nan nan nan nan nan nan nan nan nan nan nan nan nan nan nan nan nan nan nan nan nan nan nan nan nan nan nan
32 31 31 31 31 30 31 30 30 31 31 31 29 29 26 25 27 25 nan nan nan nan nan nan nan nan nan nan nan nan nan nan nan nan nan nan nan nan nan nan nan nan
35 33 35 36 36 34 34 31 29 nan 31 nan nan 29 31 27 25 24 25 26 25 24 24 nan nan nan nan nan nan nan nan nan nan nan nan nan nan nan nan nan nan nan
36 37 38 38 39 38 37 34 33 nan 32 nan 33 32 29 30 31 30 29 27 25 24 26 26 26 25 23 nan nan nan nan nan nan nan nan nan nan nan nan nan nan nan
36 40 41 40 39 39 39 38 37 36 nan 33 34 32 28 28 29 30 32 31 nan 26 25 26 27 26 25 25 24 nan nan 23 23 nan nan nan nan nan nan nan nan nan
39 39 37 35 35 38 40 42 42 42 41 38 37 36 32 nan 31 31 32 34 31 29 30 28 27 27 27 26 25 25 26 nan nan nan nan nan nan nan nan nan nan nan
42 37 37 35 36 37 38 40 41 42 40 39 39 38 36 35 33 31 nan nan nan 29 nan nan 28 27 27 27 26 27 28 28 29 28 nan nan nan nan nan nan nan nan
45 45 46 45 43 43 43 42 42 41 40 39 38 37 35 36 36 35 33 34 32 29 26 nan 26 26 28 30 29 28 30 31 33 34 34 nan nan nan nan nan nan nan
nan nan nan 50 49 47 46 46 46 44 43 42 41 39 38 38 39 38 37 35 33 32 32 32 33 33 32 31 33 34 35 35 37 37 37 36 nan nan nan nan nan nan
nan nan nan nan nan nan 50 49 49 49 47 44 42 40 39 40 41 40 39 38 38 37 37 38 39 38 34 32 33 36 37 36 36 35 36 37 38 nan nan nan nan nan
nan nan nan nan nan 52 53 52 53 51 50 49 47 44 42 44 42 41 41 43 44 44 45 44 43 40 38 37 38 36 37 39 39 40 41 43 43 43 nan nan nan nan
nan nan nan nan nan nan nan nan nan 56 55 54 51 48 49 48 45 44 44 45 45 44 44 44 43 41 39 40 43 43 44 49 49 50 51 50 nan nan nan nan nan nan
nan nan nan nan nan nan nan nan nan nan nan 54 54 55 54 51 51 50 50 52 54 53 51 49 49 47 46 44 45 48 50 53 51 52 53 53 52 nan nan nan nan nan
nan nan nan nan nan nan nan nan nan nan nan nan 53 54 56 55 52 52 51 54 57 56 53 50 47 50 55 56 57 59 59 56 53 52 nan 54 nan nan nan nan nan nan
nan nan nan nan nan nan nan nan nan nan nan nan 50 52 54 55 55 54 51 54 57 57 56 54 52 55 60 61 61 61 61 57 56 56 56 55 54 nan nan nan nan nan
nan nan nan nan nan nan nan nan nan nan nan nan nan 50 52 52 52 55 54 58 58 58 60 59 57 57 61 63 64 66 63 60 nan nan nan nan nan nan nan nan nan nan
nan nan nan nan nan nan nan nan nan nan nan nan nan nan 51 51 50 nan nan 59 59 58 59 60 57 56 59 62 63 64 63 60 59 nan nan nan nan nan nan nan nan nan
nan nan nan nan nan nan nan nan nan nan nan nan nan nan 50 52 55 nan nan nan nan 58 60 61 57 56 58 61 62 61 58 nan nan nan nan nan nan nan nan nan nan nan
nan nan nan nan nan nan nan nan nan nan nan nan nan nan nan 52 57 nan nan nan 58 59 59 60 60 57 57 62 61 60 nan nan nan nan nan nan nan nan nan nan nan nan
Wind_Direction
nan nan nan nan nan nan nan nan nan nan nan nan nan nan nan nan nan nan nan nan nan nan nan nan nan nan nan nan nan nan nan nan nan nan nan nan nan nan nan nan nan nan
nan nan nan nan nan nan nan nan nan nan nan nan nan nan nan nan nan nan nan nan nan nan nan nan nan nan nan nan nan nan nan nan nan nan nan nan nan nan nan nan nan nan
nan nan nan nan nan nan nan nan nan nan nan nan nan nan nan nan nan nan nan nan nan nan nan nan nan nan nan nan nan nan nan nan nan nan nan nan nan nan nan nan nan nan
nan nan nan nan nan nan nan nan nan nan nan nan nan nan nan nan nan nan nan nan nan nan nan nan nan nan nan nan nan nan nan nan nan nan nan nan nan nan nan nan nan nan
nan nan nan nan nan nan 294 nan nan 298 nan nan nan nan nan nan nan nan nan nan nan nan nan nan nan nan nan nan nan nan nan nan nan nan nan nan nan nan nan nan nan nan
273 nan nan nan 285 nan 282 292 nan nan 287 290 nan nan nan nan nan nan nan nan nan nan nan nan nan nan nan nan nan nan nan nan nan nan nan nan nan nan nan nan nan nan
273 278 277 273 277 nan 276 282 nan nan nan 286 nan nan nan nan nan nan nan nan nan nan nan nan nan nan nan nan nan nan nan nan nan nan nan nan nan nan nan nan nan nan
273 273 272 269 269 269 268 267 266 268 270 267 nan 278 nan nan nan nan nan nan nan nan nan nan nan nan nan nan nan nan nan nan nan nan nan nan nan nan nan nan nan nan
272 271 267 265 265 264 264 266 272 276 277 277 275 271 269 282 289 289 nan nan nan nan nan nan nan nan nan nan nan nan nan nan nan nan nan nan nan nan nan nan nan nan
265 266 266 264 262 262 265 268 269 nan 272 nan nan 269 268 266 269 278 288 292 289 285 289 nan nan nan nan nan nan nan nan nan nan nan nan nan nan nan nan nan nan nan
270 270 269 267 266 266 269 273 276 nan 274 nan 272 268 269 267 264 265 265 265 268 277 287 289 288 288 291 nan nan nan nan nan nan nan nan nan nan nan nan nan nan nan
268 273 274 273 269 267 269 271 273 273 nan 270 271 273 272 270 268 267 270 271 nan 266 266 275 281 284 290 295 295 nan nan 287 286 nan nan nan nan nan nan nan nan nan
256 254 254 258 262 268 270 273 274 274 274 274 269 267 268 nan 273 271 273 272 270 268 264 263 269 277 282 287 291 292 291 nan nan nan nan nan nan nan nan nan nan nan
269 269 269 270 267 266 270 275 275 275 278 278 274 267 266 270 275 277 nan nan nan 282 nan nan 260 270 277 278 281 285 285 284 284 284 nan nan nan nan nan nan nan nan
276 275 275 275 273 271 270 270 271 274 277 281 282 278 272 273 276 277 276 276 279 284 284 nan 271 273 274 274 275 277 278 280 281 280 279 nan nan nan nan nan nan nan
nan nan nan 275 275 275 274 274 275 276 277 279 281 280 276 274 275 273 272 274 275 277 278 277 276 274 275 281 281 281 282 280 278 277 275 274 nan nan nan nan nan nan
nan nan nan nan nan nan 276 278 278 278 279 278 276 276 276 277 278 278 276 275 276 277 277 278 277 276 281 282 284 286 281 279 277 274 274 275 275 nan nan nan nan nan
nan nan nan nan nan 276 275 275 275 276 276 276 277 277 275 274 274 275 275 275 276 277 278 280 279 281 287 286 285 283 279 278 276 276 277 280 281 283 nan nan nan nan
nan nan nan nan nan nan nan nan nan 275 276 276 276 276 274 275 275 274 272 270 270 271 272 273 275 274 277 286 288 287 285 282 279 281 283 284 nan nan nan nan nan nan
nan nan nan nan nan nan nan nan nan nan nan 271 271 272 273 273 272 274 273 272 270 270 270 270 271 267 269 276 283 286 290 287 281 280 279 278 279 nan nan nan nan nan
nan nan nan nan nan nan nan nan nan nan nan nan 271 271 271 272 272 272 272 273 273 273 272 271 270 269 274 275 278 279 278 277 277 276 nan 276 nan nan nan nan nan nan
nan nan nan nan nan nan nan nan nan nan nan nan 269 270 269 269 269 269 271 274 275 276 275 273 271 271 277 279 279 278 276 275 276 276 276 275 272 nan nan nan nan nan
nan nan nan nan nan nan nan nan nan nan nan nan nan 269 270 270 270 271 272 273 274 275 276 276 275 275 277 278 277 276 275 276 nan nan nan nan nan nan nan nan nan nan
nan nan nan nan nan nan nan nan nan nan nan nan nan nan 269 272 272 nan nan 274 276 276 278 279 277 275 276 275 274 273 274 276 276 nan nan nan nan nan nan nan nan nan
nan nan nan nan nan nan nan nan nan nan nan nan nan nan 269 270 270 nan nan nan nan 276 278 278 277 276 276 276 276 276 275 nan nan nan nan nan nan nan nan nan nan nan
nan nan nan nan nan nan nan nan nan nan nan nan nan nan nan 266 267 nan nan nan 271 274 276 279 279 278 278 279 278 277 nan nan nan nan nan nan nan nan nan nan nan nan